sat.trackr.live / text

‹ back to catalog

QIANFAN-228

NORAD 69857 · 2026-155K

PAYLOAD ACTIVE UNKNOWN

§ Identity

Operator
Country
PRC
Launch date
2026-07-05
Launch site
WSC
Launch vehicle
Mass (kg)
RCS (m²)

External: N2YO · Heavens-Above · Gunter

§ Orbital elements

Epoch: 2026-09-19T19:06:18.877248Z

Period
106.42 min
Inclination
89.0085°
Eccentricity
0.0033910
Mean motion
13.53189769 rev/d
Perigee alt
1,035.3 km
Apogee alt
1,085.8 km
Semi-major
7,438.7 km
B*
-2.8271e+0
RAAN
53.7907°
Arg perigee
18.1080°
Mean anomaly
342.1272°
Rev number
1,063

§ Raw data

QIANFAN-2281 69857U 26155K   26262.79605182 -.01773867  00000+0 -28271+1 0  99902 69857  89.0085  53.7907 0033910  18.1080 342.1272 13.53189769 10635

JSON: /api/v1/satellites/69857 · /tle

For live sub-satellite position, see the globe view (requires WebGL).

§ Visibility from observer

Set your observer location to see the next 7 days of passes ≥ 10°. The values pass through the URL so the page stays shareable.

No JS? Fill the form by hand. The geolocation button needs JavaScript.